Regional Weather Roundup
Issued by NWS

Home | Current Version | Previous Version | Text Only | Print | Product List | Glossary Off
Versions: 1 2 3 4 5 6 7 8 9 10 11 12 13 14 15 16 17 18 19 20 21 22 23 24 25 26 27 28 29 30 31 32 33 34 35 36 37 38 39 40 41 42 43 44 45 46 47 48 49 50

000
ASUS43 KFSD 171502
RWRSD

WEATHER ROUNDUP FOR SOUTH DAKOTA
NATIONAL WEATHER SERVICE SIOUX FALLS SD
900 AM CST SAT FEB 17 2018

NOTE: "FAIR" INDICATES FEW OR NO CLOUDS BELOW 12,000 FEET WITH NO
SIGNIFICANT WEATHER AND/OR OBSTRUCTIONS TO VISIBILITY.


SDZ001>005-009-010-012>017-171600-
NORTHWEST AND NORTH CENTRAL SOUTH DAKOTA

CITY           SKY/WX    TMP DP  RH WIND       PRES   REMARKS
BUFFALO          N/A     14   9  80 NW21      29.88R WCI  -4
FAITH            N/A     20  19  96 NW13      29.95R WCI   7
MOBRIDGE       MOSUNNY   24  18  77 NW14      29.91R WCI  12
$$

SDZ012>016-024>037-041>051-057-063-072>074-171600-
SOUTHWEST AND SOUTH CENTRAL SOUTH DAKOTA

CITY           SKY/WX    TMP DP  RH WIND       PRES   REMARKS
RAPID CTY ARPT MOSUNNY   29  20  69 N13       29.96R WCI  19
PIERRE         PTSUNNY   23  22  96 W10       29.96R WCI  12
CUSTER         SUNNY     22   7  52 NW7       29.88R WCI  13
ELLSWORTH AFB  MOSUNNY   28  23  83 N15       29.95R WCI  16
PHILIP         SUNNY     25  21  85 W8        29.98R WCI  16
PINE RIDGE     MOSUNNY   24  17  74 SW7       30.00R WCI  16
SPEARFISH        N/A     27  19  74 W14       29.95R WCI  15
WINNER         FAIR      30  20  66 W9        29.95R WCI  22
$$

SDZ004>011-016>023-039-040-171600-
NORTHEAST SOUTH DAKOTA

CITY           SKY/WX    TMP DP  RH WIND       PRES   REMARKS
ABERDEEN       PTSUNNY   21  17  84 NW7       29.94R WCI  12
WATERTOWN      MOSUNNY   19  17  92 NW12      29.87R WCI   7
BROOKINGS      CLOUDY    25  23  92 W10       29.88S FOG     WCI  15
SISSETON         N/A     24  17  74 NW14      29.89R WCI  12
$$

SDZ017-020-022-023-036>040-048>070-171600-
SOUTHEAST SOUTH DAKOTA

CITY           SKY/WX    TMP DP  RH WIND       PRES   REMARKS
SIOUX FALLS    CLOUDY    25  23  92 W6        29.90R WCI  18
HURON          LGT SNOW  23  19  85 NW10      29.93R FOG     WCI  12
CHAMBERLAIN    LGT SNOW  25  23  91 W13       29.96R WCI  13
MITCHELL       PTSUNNY   24  20  84 W8        29.94R WCI  15
YANKTON        SUNNY     26  24  92 W6        29.93R WCI  19
$$

ABBREVIATIONS USED IN REMARKS
   TC - TEMPERATURE IN CELSIUS
  WCI - WIND CHILL INDEX
   HX - HEAT INDEX
  VSB - VISIBILITY





USA.gov is the U.S. government's official web portal to all federal, state and local government web resources and services.